Hourly Data Report for May 11, 2012

All times are specified in Local Standard Time (LST). Add 1 hour to adjust for Daylight Saving Time where and when it is observed.

LONDON A
ONTARIO

43°01'59.000" N
81°09'04.000" W
278.00 m
6144473
71623
YXU

Download Data

Hourly Data (May 2012)
Hourly Data Report for May 11, 2012
Temp Definition
°C
Dew Point Temp Definition
°C
Rel Hum Definition
%
Wind Dir Definition
10's deg

Wind Spd Definition
km/h
Visibility Definition
km
Stn Press Definition
kPa
Hmdx Definition


Wind Chill Definition


Weather Definition


TIME
00:00 Legend Double Dagger 4.4 1.3 80   0 10.0 98.25     LegendNANA
01:00 Legend Double Dagger 4.7 -0.1 71 29 5 10.0 98.27     Clear
02:00 Legend Double Dagger 3.8 0.3 78   0 10.0 98.31     LegendNANA
03:00 Legend Double Dagger 3.7 0.6 80 27 4 10.0 98.36     LegendNANA
04:00 Legend Double Dagger 4.8 -0.4 69 30 7 10.0 98.41     Clear
05:00 Legend Double Dagger 3.5 0.0 78 29 5 10.0 98.48     LegendNANA
06:00 Legend Double Dagger 4.3 0.5 76 28 4 10.0 98.53     LegendNANA
07:00 Legend Double Dagger 9.5 2.6 62 28 5 10.0 98.59     Clear
08:00 Legend Double Dagger 13.1 4.8 57 29 11 10.0 98.61     LegendNANA
09:00 Legend Double Dagger 15.5 3.4 44 30 15 10.0 98.67     LegendNANA
10:00 Legend Double Dagger 16.8 3.6 41 28 21 10.0 98.71     Clear
11:00 Legend Double Dagger 18.0 3.6 38 29 25 10.0 98.70     LegendNANA
12:00 Legend Double Dagger 19.4 5.6 40 33 15 10.0 98.66     LegendNANA
13:00 Legend Double Dagger 19.7 5.1 38 34 20 10.0 98.63     Mainly Clear
14:00 Legend Double Dagger 19.9 4.1 35 29 18 10.0 98.63     LegendNANA
15:00 Legend Double Dagger 20.7 4.0 33 27 14 10.0 98.64     LegendNANA
16:00 Legend Double Dagger 20.8 6.1 38 28 19 10.0 98.61     Mainly Clear
17:00 Legend Double Dagger 21.0 5.1 35 27 14 10.0 98.61     LegendNANA
18:00 Legend Double Dagger 20.9 5.4 36 28 16 10.0 98.63     LegendNANA
19:00 Legend Double Dagger 19.6 5.0 38 28 10 10.0 98.64     Mainly Clear
20:00 Legend Double Dagger 16.6 5.6 48 25 12 10.0 98.68     LegendNANA
21:00 Legend Double Dagger 14.5 5.9 56 21 12 10.0 98.75     LegendNANA
22:00 Legend Double Dagger 14.7 5.8 55 24 16 10.0 98.78     Clear
23:00 Legend Double Dagger 14.3 5.5 55 25 15 10.0 98.79     LegendNANA

Notes on Data Quality.

Legend

  • E = Estimated
  • M = Missing
  • NA = Not Available
  • ‡ = Partner data that is not subject to review by the National Climate Archives
Date modified: